• In Hungary
  • List of Countries
  • For 7 days
  • Water Temperature
  • Satellite Maps
  • Weather Map
  • News
  • Weather Widgets
  • user-avatar
    Login

    Hourly Weather Rechnoy

    Today, 23 October, Tuesday

    Time Temperature Precipitation Wind Pressure Humidity
    00:00 +1°C° 0 mm 3 mps 741 mmHg 60%
    01:00 +1°C° 0 mm 3 mps 741 mmHg 62%
    02:00 +1°C° 0 mm 3 mps 741 mmHg 63%
    03:00 +1°C° 0 mm 3 mps 741 mmHg 65%
    04:00 0°C° 0 mm 3 mps 740 mmHg 68%
    05:00 0°C° 0 mm 3 mps 740 mmHg 69%
    06:00 0°C° 0 mm 3 mps 740 mmHg 70%
    07:00 0°C° 0 mm 3 mps 740 mmHg 71%
    08:00 0°C° 0 mm 4 mps 740 mmHg 67%
    09:00 +3°C° 0 mm 4 mps 740 mmHg 62%
    10:00 +5°C° 0 mm 4 mps 740 mmHg 56%
    11:00 +6°C° 0 mm 4 mps 739 mmHg 53%
    12:00 +7°C° 0 mm 4 mps 739 mmHg 51%
    13:00 +8°C° 0 mm 5 mps 739 mmHg 48%
    14:00 +8°C° 0 mm 4 mps 739 mmHg 48%
    15:00 +8°C° 0 mm 4 mps 738 mmHg 49%
    16:00 +8°C° 0 mm 4 mps 738 mmHg 50%
    17:00 +8°C° 0 mm 4 mps 737 mmHg 55%
    18:00 +7°C° 0 mm 4 mps 737 mmHg 59%
    19:00 +6°C° 0 mm 4 mps 737 mmHg 64%
    20:00 +6°C° 0 mm 4 mps 737 mmHg 66%
    21:00 +5°C° 0 mm 4 mps 737 mmHg 68%
    22:00 +5°C° 0 mm 5 mps 736 mmHg 70%
    23:00 +5°C° 0 mm 5 mps 736 mmHg 70%

    Tomorrow, 24 October, Wednesday

    Time Temperature Precipitation Wind Pressure Humidity
    00:00 +5°C° 0 mm 5 mps 736 mmHg 70%
    01:00 +5°C° 0 mm 5 mps 736 mmHg 70%
    02:00 +5°C° 0 mm 5 mps 736 mmHg 67%
    03:00 +5°C° 0 mm 5 mps 735 mmHg 64%
    04:00 +5°C° 0 mm 5 mps 735 mmHg 61%
    05:00 +5°C° 0 mm 5 mps 735 mmHg 58%
    06:00 +5°C° 0 mm 5 mps 735 mmHg 54%
    07:00 +5°C° 0 mm 5 mps 734 mmHg 51%
    08:00 +5°C° 0.1 mm 5 mps 734 mmHg 49%
    09:00 +5°C° 0.1 mm 5 mps 734 mmHg 46%
    10:00 +5°C° 0.1 mm 6 mps 734 mmHg 44%
    11:00 +5°C° 0 mm 6 mps 734 mmHg 43%
    12:00 +7°C° 0 mm 6 mps 734 mmHg 43%
    13:00 +7°C° 0 mm 6 mps 733 mmHg 43%
    14:00 +7°C° 0 mm 6 mps 733 mmHg 45%
    15:00 +7°C° 0 mm 6 mps 733 mmHg 47%
    16:00 +8°C° 0 mm 5 mps 733 mmHg 49%
    17:00 +7°C° 0 mm 5 mps 733 mmHg 55%
    18:00 +6°C° 0 mm 5 mps 733 mmHg 61%
    19:00 +5°C° 0 mm 4 mps 733 mmHg 66%
    20:00 +5°C° 0 mm 4 mps 733 mmHg 69%
    21:00 +5°C° 0 mm 4 mps 733 mmHg 71%
    22:00 +5°C° 0 mm 4 mps 733 mmHg 74%
    23:00 +5°C° 0 mm 4 mps 733 mmHg 74%

    Day after tomorrow, 25 October, Thursday

    Time Temperature Precipitation Wind Pressure Humidity
    00:00 +5°C° 0 mm 4 mps 733 mmHg 74%
    01:00 +5°C° 0 mm 3 mps 733 mmHg 73%
    02:00 +4°C° 0 mm 4 mps 732 mmHg 74%
    03:00 +4°C° 0 mm 4 mps 732 mmHg 74%
    04:00 +4°C° 0 mm 4 mps 732 mmHg 75%
    05:00 +4°C° 0 mm 4 mps 732 mmHg 73%
    06:00 +4°C° 0 mm 4 mps 732 mmHg 71%
    07:00 +4°C° 0 mm 4 mps 732 mmHg 69%
    08:00 +6°C° 0 mm 5 mps 732 mmHg 63%
    09:00 +8°C° 0 mm 6 mps 732 mmHg 56%
    10:00 +9°C° 0 mm 6 mps 732 mmHg 49%
    11:00 +11°C° 0 mm 7 mps 731 mmHg 45%
    12:00 +14°C° 0 mm 7 mps 731 mmHg 41%
    13:00 +15°C° 0 mm 8 mps 731 mmHg 36%
    14:00 +15°C° 0 mm 7 mps 731 mmHg 36%
    15:00 +15°C° 0 mm 6 mps 730 mmHg 36%
    16:00 +15°C° 0 mm 6 mps 730 mmHg 36%
    17:00 +14°C° 0 mm 6 mps 730 mmHg 38%
    18:00 +12°C° 0 mm 7 mps 730 mmHg 39%
    19:00 +11°C° 0 mm 8 mps 730 mmHg 41%
    20:00 +11°C° 0 mm 8 mps 730 mmHg 41%
    21:00 +11°C° 0 mm 8 mps 730 mmHg 40%
    22:00 +11°C° 0 mm 8 mps 730 mmHg 40%
    23:00 +10°C° 0 mm 8 mps 729 mmHg 41%

    26 October, Friday

    Time Temperature Precipitation Wind Pressure Humidity
    00:00 +10°C° 0 mm 8 mps 729 mmHg 42%
    01:00 +10°C° 0 mm 8 mps 729 mmHg 42%
    02:00 +10°C° 0 mm 8 mps 728 mmHg 43%
    03:00 +10°C° 0 mm 8 mps 728 mmHg 44%
    04:00 +10°C° 0 mm 8 mps 728 mmHg 44%
    05:00 +10°C° 0 mm 8 mps 727 mmHg 45%
    06:00 +10°C° 0 mm 8 mps 727 mmHg 45%
    07:00 +10°C° 0 mm 9 mps 726 mmHg 46%
    08:00 +11°C° 0 mm 9 mps 726 mmHg 42%
    09:00 +13°C° 0 mm 10 mps 726 mmHg 38%
    10:00 +14°C° 0 mm 10 mps 726 mmHg 35%
    11:00 +15°C° 0 mm 9 mps 725 mmHg 35%
    12:00 +15°C° 0 mm 8 mps 725 mmHg 36%
    13:00 +16°C° 0 mm 7 mps 725 mmHg 36%
    14:00 +15°C° 0 mm 6 mps 725 mmHg 37%
    15:00 +15°C° 0 mm 5 mps 724 mmHg 38%
    16:00 +16°C° 0 mm 3 mps 724 mmHg 38%
    17:00 +14°C° 0.5 mm 4 mps 724 mmHg 49%
    18:00 +13°C° 0.5 mm 4 mps 725 mmHg 59%
    19:00 +12°C° 0.5 mm 4 mps 725 mmHg 69%
    20:00 +11°C° 0.2 mm 4 mps 725 mmHg 74%
    21:00 +11°C° 0.2 mm 4 mps 725 mmHg 78%
    22:00 +10°C° 0.2 mm 3 mps 726 mmHg 83%
    23:00 +10°C° 0 mm 4 mps 726 mmHg 78%

    27 October, Saturday

    Time Temperature Precipitation Wind Pressure Humidity
    00:00 +8°C° 0 mm 4 mps 727 mmHg 73%
    01:00 +7°C° 0 mm 5 mps 727 mmHg 67%
    02:00 +7°C° 0 mm 5 mps 728 mmHg 65%
    03:00 +7°C° 0 mm 4 mps 728 mmHg 63%
    04:00 +6°C° 0 mm 4 mps 729 mmHg 61%
    05:00 +6°C° 0 mm 4 mps 729 mmHg 63%
    06:00 +7°C° 0 mm 3 mps 729 mmHg 65%
    07:00 +5°C° 0 mm 3 mps 730 mmHg 67%
    08:00 +7°C° 0 mm 3 mps 730 mmHg 64%
    09:00 +7°C° 0 mm 3 mps 730 mmHg 61%
    10:00 +6°C° 0 mm 4 mps 731 mmHg 57%
    11:00 +7°C° 0 mm 4 mps 731 mmHg 54%
    12:00 +7°C° 0 mm 5 mps 731 mmHg 51%
    13:00 +7°C° 0 mm 5 mps 731 mmHg 47%
    14:00 +7°C° 0 mm 5 mps 731 mmHg 48%
    15:00 +7°C° 0 mm 5 mps 731 mmHg 50%
    16:00 +7°C° 0 mm 4 mps 731 mmHg 51%
    17:00 +6°C° 0 mm 4 mps 732 mmHg 55%
    18:00 +7°C° 0 mm 3 mps 732 mmHg 58%
    19:00 +6°C° 0 mm 2 mps 732 mmHg 62%
    20:00 +5°C° 0.1 mm 3 mps 733 mmHg 64%
    21:00 +5°C° 0.1 mm 4 mps 733 mmHg 65%
    22:00 +5°C° 0.1 mm 4 mps 733 mmHg 67%
    23:00 +4°C° 0 mm 4 mps 734 mmHg 67%

    28 October, Sunday

    Time Temperature Precipitation Wind Pressure Humidity
    00:00 +3°C° 0 mm 4 mps 734 mmHg 67%
    01:00 +1°C° 0 mm 4 mps 735 mmHg 67%
    02:00 +1°C° 0 mm 4 mps 735 mmHg 67%
    03:00 +1°C° 0 mm 4 mps 736 mmHg 66%
    04:00 0°C° 0 mm 4 mps 736 mmHg 66%
    05:00 +1°C° 0 mm 5 mps 736 mmHg 67%
    06:00 +1°C° 0 mm 5 mps 736 mmHg 67%
    07:00 +1°C° 0 mm 6 mps 736 mmHg 67%
    08:00 +2°C° 0 mm 7 mps 736 mmHg 64%
    09:00 +2°C° 0 mm 9 mps 736 mmHg 60%
    10:00 +3°C° 0 mm 10 mps 736 mmHg 57%
    11:00 +4°C° 0.1 mm 11 mps 735 mmHg 56%
    12:00 +6°C° 0.1 mm 11 mps 735 mmHg 55%
    13:00 +7°C° 0.1 mm 12 mps 734 mmHg 55%
    14:00 +5°C° 1 mm 12 mps 734 mmHg 61%
    15:00 +5°C° 1 mm 12 mps 733 mmHg 67%
    16:00 +5°C° 1 mm 12 mps 733 mmHg 73%
    17:00 +5°C° 0.8 mm 12 mps 733 mmHg 75%
    18:00 +7°C° 0.8 mm 12 mps 733 mmHg 78%
    19:00 +7°C° 0.8 mm 11 mps 733 mmHg 81%
    20:00 +7°C° 0.3 mm 9 mps 734 mmHg 79%
    21:00 +6°C° 0.3 mm 7 mps 734 mmHg 77%
    22:00 +6°C° 0.3 mm 5 mps 735 mmHg 75%
    23:00 +6°C° 0 mm 5 mps 735 mmHg 76%

    29 October, Monday

    Time Temperature Precipitation Wind Pressure Humidity
    00:00 +5°C° 0 mm 5 mps 736 mmHg 77%
    01:00 +5°C° 0 mm 5 mps 736 mmHg 78%
    02:00 +5°C° 0 mm 5 mps 737 mmHg 79%
    03:00 +3°C° 0 mm 5 mps 737 mmHg 80%
    04:00 +3°C° 0 mm 5 mps 737 mmHg 82%
    05:00 +3°C° 0 mm 5 mps 738 mmHg 82%
    06:00 +2°C° 0 mm 5 mps 738 mmHg 82%
    07:00 +2°C° 0 mm 5 mps 738 mmHg 82%
    08:00 +3°C° 0 mm 6 mps 739 mmHg 76%
    09:00 +3°C° 0 mm 6 mps 739 mmHg 71%
    10:00 +4°C° 0 mm 7 mps 740 mmHg 65%
    11:00 +4°C° 0 mm 7 mps 740 mmHg 62%
    12:00 +5°C° 0 mm 7 mps 741 mmHg 58%
    13:00 +5°C° 0 mm 7 mps 741 mmHg 55%
    14:00 +5°C° 0 mm 7 mps 741 mmHg 56%
    15:00 +5°C° 0 mm 6 mps 742 mmHg 58%
    16:00 +4°C° 0 mm 6 mps 742 mmHg 59%
    17:00 +5°C° 0 mm 5 mps 743 mmHg 62%
    18:00 +4°C° 0 mm 4 mps 743 mmHg 66%
    19:00 +4°C° 0 mm 4 mps 744 mmHg 69%
    20:00 +4°C° 0 mm 3 mps 744 mmHg 70%
    21:00 +4°C° 0 mm 3 mps 744 mmHg 72%
    22:00 +4°C° 0 mm 3 mps 745 mmHg 73%
    23:00 +3°C° 0 mm 3 mps 745 mmHg 75%
    Show more